Location: Cussy
(47.0410°N, 4.6412°E)
Time: 19:56:39
(UTC+00:00)

CZ-4 R/B - Pass Details

Date: 30 November 2020
Orbit: 532 x 598 km, 97.7° (Epoch: 27 January)

Event Time Altitude Azimuth Distance (km) Brightness Sun altitude
Rises 19:09:52 0° 201° (SSW) 2,710 5.1 -32.5°
Enters shadow 19:10:09 - 202° (SSW) 2,601 5.0 -32.6°
Exits shadow 19:16:16 19° 286° (WNW) 1,365 3.9 -33.6°
Drops below altitude 10° 19:18:29 10° 317° (NW) 1,878 4.5 -34.0°
Sets 19:21:07 0° 334° (NNW) 2,795 5.3 -34.5°
